HG5OJG-6 Weather Reports


Display with metric or nautical units.
time (UTC)temp
F
wind
direction
speed
MPH
gust
MPH
rain 1hr
in
rain 24hr
in
rain mn
in
humidity
%
barometer
mb
20260507060624 61 199 4.0 10.0 0.00 0.07 0.04 79 1011.5
20260507055628 60 217 6.0 11.0 0.00 0.07 0.04 80 1011.5
20260507054612 60 215 4.0 9.0 0.00 0.07 0.04 81 1011.4
20260507053737 59 217 3.0 9.0 0.00 0.07 0.04 82 1011.3
20260507052536 59 212 3.0 8.0 0.00 0.07 0.04 83 1011.3
20260507051614 58 217 2.0 3.0 0.00 0.07 0.04 83 1011.2
20260507045556 58 209 2.0 6.0 0.00 0.07 0.04 83 1010.9
20260507044615 58 245 2.0 2.0 0.00 0.07 0.04 83 1010.7
20260507043640 57 254 2.0 4.0 0.00 0.07 0.04 84 1010.6
20260507042539 57 227 3.0 9.0 0.00 0.07 0.04 84 1010.4
20260507041658 57 232 5.0 10.0 0.00 0.07 0.04 84 1010.2
20260507040557 57 245 5.0 9.0 0.00 0.07 0.04 84 1010.1
20260507035541 57 233 4.0 9.0 0.00 0.07 0.04 84 1010.1
20260507034545 57 242 4.0 8.0 0.00 0.07 0.04 84 1010.1
20260507033650 57 247 5.0 8.0 0.00 0.07 0.04 84 1010.1
20260507032523 57 231 5.0 9.0 0.00 0.07 0.04 84 1010.1
20260507031547 57 233 4.0 7.0 0.00 0.07 0.04 84 1010.1
20260507030551 57 261 4.0 8.0 0.00 0.07 0.04 84 1010.0
20260507025635 57 269 4.0 8.0 0.00 0.07 0.04 84 1010.0
20260507024538 57 266 4.0 7.0 0.00 0.07 0.04 84 1010.0
20260507023552 57 270 4.0 7.0 0.00 0.07 0.04 84 1010.1
20260507022607 57 265 4.0 7.0 0.00 0.07 0.04 84 1010.0
20260507021612 58 255 4.0 7.0 0.00 0.07 0.04 84 1009.9
20260507020616 58 249 4.0 9.0 0.00 0.07 0.04 84 1009.8
20260507015559 58 245 5.0 11.0 0.00 0.07 0.04 84 1009.9
20260507014603 58 239 6.0 11.0 0.00 0.07 0.04 85 1010.0
20260507013617 58 253 6.0 14.0 0.00 0.07 0.04 85 1010.0
20260507012541 58 245 6.0 10.0 0.00 0.07 0.04 85 1010.1
20260507011706 58 251 7.0 11.0 0.00 0.07 0.04 85 1010.1
20260507010630 58 241 4.0 7.0 0.00 0.07 0.04 85 1009.9
20260507005614 58 258 3.0 8.0 0.00 0.07 0.04 85 1010.0
20260507004548 58 236 3.0 4.0 0.00 0.07 0.04 85 1010.0
20260507003612 59 229 2.0 4.0 0.00 0.07 0.04 85 1010.1
20260507002617 59 244 3.0 6.0 0.00 0.07 0.04 85 1010.2
20260507001620 59 258 3.0 6.0 0.00 0.07 0.04 84 1010.2
20260507000604 59 247 2.0 4.0 0.02 0.07 0.04 84 1010.4
20260506235639 59 241 2.0 6.0 0.04 0.07 0.04 84 1010.5
20260506234602 59 253 2.0 6.0 0.04 0.07 0.04 84 1010.4
20260506233627 59 223 2.0 6.0 0.04 0.07 0.04 83 1010.6
20260506232612 60 213 4.0 6.0 0.04 0.07 0.04 83 1010.6
20260506231615 60 222 3.0 6.0 0.04 0.06 0.04 82 1010.6
20260506230629 61 210 6.0 16.0 0.03 0.05 0.03 82 1011.0
20260506225611 61 220 7.0 14.0 0.01 0.03 0.01 82 1011.0
20260506224635 61 231 7.0 17.0 0.01 0.03 0.01 81 1011.0
20260506223611 61 226 5.0 11.0 0.01 0.03 0.01 81 1010.8
20260506222637 61 193 4.0 9.0 0.00 0.02 0.00 80 1010.4
20260506221640 61 250 5.0 10.0 0.00 0.02 0.00 80 1010.0
20260506220634 61 249 6.0 11.0 0.00 0.02 0.00 80 1009.8
20260506215638 61 266 5.0 10.0 0.00 0.02 0.02 79 1009.9
20260506214538 61 247 3.0 7.0 0.00 0.02 0.02 79 1009.9
20260506213521 61 252 4.0 6.0 0.00 0.02 0.02 80 1009.8
20260506212646 61 236 3.0 6.0 0.00 0.02 0.02 79 1010.0
20260506211520 62 250 2.0 4.0 0.00 0.02 0.02 79 1009.9
20260506210625 62 240 2.0 4.0 0.02 0.02 0.02 79 1009.9
20260506205527 62 265 3.0 6.0 0.02 0.02 0.02 79 1009.8
20260506204633 62 258 2.0 6.0 0.02 0.02 0.02 79 1009.8
20260506203538 62 253 3.0 9.0 0.02 0.02 0.02 78 1009.8
20260506202610 62 258 6.0 11.0 0.02 0.02 0.02 77 1010.2
20260506201554 63 227 4.0 13.0 0.02 0.02 0.02 75 1010.3
20260506200619 64 245 7.0 16.0 0.01 0.01 0.01 73 1010.3
20260506195603 66 228 8.0 21.0 0.00 0.00 0.00 69 1010.5
20260506194608 67 220 12.0 25.0 0.00 0.00 0.00 64 1010.3
20260506193621 68 229 13.0 25.0 0.00 0.00 0.00 58 1009.9
20260506192545 67 224 3.0 6.0 0.00 0.00 0.00 57 1009.3
20260506191549 68 243 2.0 2.0 0.00 0.00 0.00 56 1009.2
20260506190554 68 228 2.0 3.0 0.00 0.00 0.00 55 1009.2
20260506185619 68 223 1.0 4.0 0.00 0.00 0.00 54 1009.1
20260506184612 68 226 1.0 3.0 0.00 0.00 0.00 53 1009.0
20260506183614 69 241 1.0 2.0 0.00 0.00 0.00 52 1009.0
20260506182618 70 242 1.0 3.0 0.00 0.00 0.00 51 1008.6
20260506181614 70 227 2.0 4.0 0.00 0.00 0.00 50 1008.6
20260506180616 71 224 3.0 6.0 0.00 0.00 0.00 50 1008.6
20260506175559 71 238 3.0 7.0 0.00 0.00 0.00 49 1008.5
20260506174553 72 229 2.0 7.0 0.00 0.00 0.00 48 1008.5
20260506173557 73 227 4.0 13.0 0.00 0.00 0.00 47 1008.5
20260506172722 73 243 4.0 10.0 0.00 0.00 0.00 46 1008.5
20260506171625 73 221 5.0 9.0 0.00 0.00 0.00 46 1008.4
20260506170609 74 219 5.0 11.0 0.00 0.00 0.00 46 1008.4
20260506165603 74 237 5.0 11.0 0.00 0.00 0.00 45 1008.4
20260506164648 75 215 6.0 14.0 0.00 0.00 0.00 44 1008.4
20260506163612 75 239 7.0 13.0 0.00 0.00 0.00 44 1008.5
20260506162636 75 230 5.0 13.0 0.00 0.00 0.00 43 1008.6
20260506161535 75 221 8.0 16.0 0.00 0.00 0.00 43 1008.5
20260506160614 76 250 8.0 17.0 0.00 0.00 0.00 41 1008.5
20260506155637 76 215 6.0 17.0 0.00 0.00 0.00 41 1008.5
20260506154537 76 228 7.0 14.0 0.00 0.00 0.00 41 1008.7
20260506153635 77 208 7.0 14.0 0.00 0.00 0.00 40 1008.8
20260506152619 77 218 7.0 18.0 0.00 0.00 0.00 41 1008.7
20260506151519 76 243 4.0 11.0 0.00 0.00 0.00 42 1008.7
20260506150638 77 226 7.0 16.0 0.00 0.00 0.00 41 1008.7
20260506145516 77 200 7.0 16.0 0.00 0.00 0.00 41 1008.7
20260506144621 76 194 6.0 15.0 0.00 0.00 0.00 41 1008.9
20260506143545 77 221 7.0 17.0 0.00 0.00 0.00 40 1009.0
20260506142549 77 222 6.0 11.0 0.00 0.00 0.00 38 1009.0
20260506141523 79 214 9.0 18.0 0.00 0.00 0.00 37 1009.0
20260506140607 79 212 7.0 16.0 0.00 0.00 0.00 37 1008.9
20260506135531 79 211 9.0 19.0 0.00 0.00 0.00 37 1009.1
20260506134535 79 234 8.0 17.0 0.00 0.00 0.00 36 1009.1
20260506133600 79 229 6.0 24.0 0.00 0.00 0.00 36 1009.2
20260506132554 79 205 9.0 18.0 0.00 0.00 0.00 36 1009.3
20260506131558 79 232 10.0 21.0 0.00 0.00 0.00 35 1009.3
20260506130542 79 206 10.0 22.0 0.00 0.00 0.00 35 1009.4
20260506125544 79 203 9.0 14.0 0.00 0.00 0.00 37 1009.5
20260506124549 80 221 12.0 22.0 0.00 0.00 0.00 37 1009.5
20260506123623 79 204 9.0 17.0 0.00 0.00 0.00 37 1009.5
20260506122621 79 203 9.0 22.0 0.00 0.00 0.00 36 1009.7
20260506121602 79 205 9.0 21.0 0.00 0.00 0.00 37 1009.8
20260506120546 78 222 11.0 21.0 0.00 0.00 0.00 38 1009.7
20260506115550 78 218 14.0 25.0 0.00 0.00 0.00 36 1009.9
20260506114554 79 214 10.0 23.0 0.00 0.00 0.00 38 1009.9
20260506113548 77 210 9.0 19.0 0.00 0.00 0.00 39 1010.1
20260506112613 78 227 7.0 22.0 0.00 0.00 0.00 40 1010.1
20260506111557 78 235 13.0 23.0 0.00 0.00 0.00 40 1010.0
20260506110601 77 229 7.0 15.0 0.00 0.00 0.00 43 1010.1
20260506105625 77 209 8.0 19.0 0.00 0.00 0.00 43 1010.1
20260506104619 76 221 7.0 22.0 0.00 0.00 0.00 45 1010.2
20260506103603 76 218 8.0 21.0 0.00 0.00 0.00 44 1010.4
20260506102628 76 221 8.0 16.0 0.00 0.00 0.00 47 1010.3
20260506101651 74 199 8.0 16.0 0.00 0.00 0.00 48 1010.4
20260506100655 73 192 6.0 15.0 0.00 0.00 0.00 49 1010.4
20260506095631 73 220 6.0 15.0 0.00 0.00 0.00 49 1010.5
20260506094631 72 224 6.0 14.0 0.00 0.00 0.00 50 1010.5
20260506093615 72 224 6.0 14.0 0.00 0.00 0.00 50 1010.5
20260506092650 72 195 7.0 17.0 0.00 0.00 0.00 49 1010.5
20260506091636 73 227 11.0 16.0 0.00 0.00 0.00 49 1010.5
20260506090638 73 178 8.0 18.0 0.00 0.00 0.00 49 1010.4
20260506085632 73 208 9.0 16.0 0.00 0.00 0.00 50 1010.5
20260506084656 73 205 5.0 15.0 0.00 0.00 0.00 50 1010.5
20260506083657 73 226 6.0 13.0 0.00 0.00 0.00 50 1010.4
20260506082522 73 216 8.0 23.0 0.00 0.00 0.00 51 1010.4
20260506081544 71 205 6.0 13.0 0.00 0.00 0.00 53 1010.3
20260506080538 70 211 5.0 11.0 0.00 0.00 0.00 54 1010.5
20260506072616 68 220 7.0 11.0 0.00 0.00 0.00 56 1010.5
20260506071610 67 224 6.0 14.0 0.00 0.00 0.00 57 1010.5
20260506070615 66 217 6.0 14.0 0.00 0.00 0.00 58 1010.7
20260506061543 63 212 8.0 15.0 0.00 0.00 0.00 63 1010.6